Weather History for Cook, MN

Change the Weather History Date:

Thursday, February 14, 2013

  Actual Average Record
Temperature  
Mean Temperature 13 °F -  
Max Temperature 23 °F 23 °F 46 °F (1999)
Min Temperature 3 °F 2 °F -25 °F (2007)
Degree Days  
Heating Degree Days 52    
Moisture  
Dew Point 7 °F    
Average Humidity 74    
Maximum Humidity 100    
Minimum Humidity 46    
Precipitation  
Precipitation 0.00 in - - ()
Sea Level Pressure  
Sea Level Pressure 29.89 in    
Wind  
Wind Speed 4 mph (NNW)    
Max Wind Speed 12 mph    
Max Gust Speed 17 mph    
Visibility 10 miles    
Events Snow    
Averages and records for this station are not official NWS values.
T = Trace of Precipitation, MM = Missing Value Source: NWS Daily Summary

Daily Weather History Graph

Daily Weather History Graph

Search for Another Location

Airport:

Trip Planner

Search our weather history database for the weather conditions in past years. The results will help you decide how hot, cold, wet, or windy it might be!

Date:

Astronomy

Feb. 14, 2013 Rise Set
Actual Time 7:17 AM CST 5:32 PM CST
Civil Twilight 6:46 AM CST 6:04 PM CST
Nautical Twilight 6:09 AM CST 6:40 PM CST
Astronomical Twilight 5:34 AM CST 7:16 PM CST
Moon 8:55 AM CST (2/14) 11:03 PM CST (2/14)
Length of Visible Light 11h 18m
Length of Day
10h 14m
Waxing Crescent, 22% of the Moon is Illuminated
Feb 14
Waxing Crescent
Feb 17
First Quarter
Feb 25
Full
Mar 4
Last Quarter
Mar 11
New

Hourly Weather History & Observations

Time (CST) Temp. Windchill Dew Point Humidity Pressure Visibility Wind Dir Wind Speed Gust Speed Precip Events Conditions
12:17 AM 19.4 °F - 17.6 °F 93% 29.65 in 10.0 mi Calm Calm - N/A   Overcast
12:36 AM 19.4 °F - 17.6 °F 93% 29.65 in 7.0 mi Calm Calm - N/A Snow Light Snow
12:56 AM 19.4 °F - 17.6 °F 93% 29.66 in 10.0 mi Calm Calm - N/A Snow Light Snow
1:17 AM 19.4 °F - 17.6 °F 93% 29.66 in 10.0 mi Calm Calm - N/A   Overcast
1:36 AM 19.4 °F - 17.6 °F 93% 29.66 in 10.0 mi Calm Calm - N/A Snow Light Snow
1:56 AM 19.4 °F - 19.4 °F 100% 29.67 in 10.0 mi Calm Calm - N/A   Overcast
2:17 AM 19.4 °F - 17.6 °F 93% 29.67 in 10.0 mi Calm Calm - N/A   Overcast
2:36 AM 19.4 °F - 19.4 °F 100% 29.68 in 10.0 mi Calm Calm - N/A   Overcast
2:57 AM 21.2 °F 16.4 °F 21.2 °F 100% 29.68 in 10.0 mi NNW 3.5 mph - N/A   Overcast
3:16 AM 23.0 °F - 21.2 °F 93% 29.68 in 10.0 mi Calm Calm - N/A   Overcast
3:36 AM 23.0 °F - 21.2 °F 93% 29.69 in 10.0 mi Calm Calm - N/A   Overcast
3:57 AM 23.0 °F 15.8 °F 21.2 °F 93% 29.70 in 10.0 mi North 5.8 mph - N/A   Overcast
4:16 AM 21.2 °F 13.6 °F 19.4 °F 93% 29.71 in 10.0 mi North 5.8 mph - N/A   Overcast
4:36 AM 19.4 °F 12.8 °F 17.6 °F 93% 29.71 in 10.0 mi North 4.6 mph - N/A   Overcast
4:57 AM 19.4 °F 11.5 °F 17.6 °F 93% 29.73 in 10.0 mi NNW 5.8 mph - N/A   Overcast
5:16 AM 17.6 °F 7.3 °F 15.8 °F 93% 29.75 in 10.0 mi NW 8.1 mph - N/A   Overcast
5:36 AM 15.8 °F 5.1 °F 14.0 °F 93% 29.76 in 10.0 mi North 8.1 mph - N/A   Overcast
5:57 AM 15.8 °F 6.1 °F 12.2 °F 86% 29.77 in 10.0 mi North 6.9 mph - N/A   Overcast
6:16 AM 14.0 °F 3.9 °F 10.4 °F 86% 29.77 in 10.0 mi North 6.9 mph - N/A   Overcast
6:36 AM 14.0 °F 2.9 °F 10.4 °F 86% 29.79 in 10.0 mi North 8.1 mph - N/A Snow Light Snow
6:56 AM 12.2 °F 2.9 °F 10.4 °F 92% 29.80 in 7.0 mi North 5.8 mph - N/A Snow Light Snow
7:17 AM 12.2 °F 0.7 °F 10.4 °F 92% 29.81 in 5.0 mi NNW 8.1 mph - N/A Snow Light Snow
7:36 AM 12.2 °F 2.9 °F 10.4 °F 92% 29.83 in 5.0 mi NNW 5.8 mph - N/A Snow Light Snow
7:57 AM 12.2 °F 1.7 °F 8.6 °F 85% 29.84 in 10.0 mi NNE 6.9 mph - N/A   Overcast
8:17 AM 12.2 °F 4.3 °F 8.6 °F 85% 29.85 in 10.0 mi North 4.6 mph - N/A   Overcast
8:36 AM 12.2 °F 0.7 °F 8.6 °F 85% 29.85 in 10.0 mi North 8.1 mph - N/A Snow Light Snow
8:57 AM 12.2 °F 0.7 °F 6.8 °F 79% 29.86 in 10.0 mi North 8.1 mph - N/A   Overcast
9:16 AM 12.2 °F -1.0 °F 6.8 °F 79% 29.87 in 10.0 mi North 10.4 mph - N/A   Overcast
9:36 AM 10.4 °F -2.4 °F 5.0 °F 79% 29.88 in 10.0 mi North 9.2 mph - N/A   Overcast
9:57 AM 12.2 °F 0.7 °F 6.8 °F 79% 29.89 in 10.0 mi North 8.1 mph - N/A   Overcast
10:16 AM 12.2 °F -1.0 °F 5.0 °F 73% 29.89 in 10.0 mi North 10.4 mph - N/A   Mostly Cloudy
10:36 AM 12.2 °F 0.7 °F 5.0 °F 73% 29.90 in 10.0 mi North 8.1 mph - N/A   Scattered Clouds
10:57 AM 12.2 °F 1.7 °F 5.0 °F 73% 29.90 in 10.0 mi North 6.9 mph - N/A   Mostly Cloudy
11:16 AM 12.2 °F 0.7 °F 3.2 °F 67% 29.91 in 10.0 mi North 8.1 mph 16.1 mph N/A   Scattered Clouds
11:36 AM 14.0 °F 2.0 °F 3.2 °F 62% 29.91 in 10.0 mi NNW 9.2 mph - N/A   Clear
11:57 AM 15.8 °F 4.2 °F 3.2 °F 58% 29.92 in 10.0 mi NNW 9.2 mph - N/A   Clear
12:16 PM 15.8 °F 6.1 °F 3.2 °F 58% 29.92 in 10.0 mi North 6.9 mph 17.3 mph N/A   Clear
12:36 PM 15.8 °F 5.1 °F 3.2 °F 58% 29.92 in 10.0 mi NNW 8.1 mph 16.1 mph N/A   Clear
12:57 PM 15.8 °F 4.2 °F 3.2 °F 58% 29.92 in 10.0 mi NNW 9.2 mph - N/A   Clear
1:16 PM 17.6 °F 5.7 °F 3.2 °F 53% 29.93 in 10.0 mi NW 10.4 mph - N/A   Clear
1:36 PM 17.6 °F 6.4 °F 1.4 °F 49% 29.93 in 10.0 mi NNW 9.2 mph - N/A   Clear
1:57 PM 19.4 °F 10.4 °F 1.4 °F 46% 29.94 in 10.0 mi NNW 6.9 mph - N/A   Clear
2:16 PM 19.4 °F 7.9 °F 3.2 °F 49% 29.94 in 10.0 mi NW 10.4 mph - N/A   Clear
2:36 PM 19.4 °F 10.4 °F 3.2 °F 49% 29.95 in 10.0 mi NW 6.9 mph - N/A   Clear
2:57 PM 19.4 °F 8.6 °F 1.4 °F 46% 29.97 in 10.0 mi NW 9.2 mph - N/A   Clear
3:16 PM 17.6 °F 5.7 °F 1.4 °F 49% 29.97 in 10.0 mi NW 10.4 mph - N/A   Clear
3:36 PM 17.6 °F 5.0 °F 3.2 °F 53% 29.98 in 10.0 mi WNW 11.5 mph - N/A   Clear
3:57 PM 17.6 °F 6.4 °F 3.2 °F 53% 29.99 in 10.0 mi NW 9.2 mph - N/A   Clear
4:16 PM 17.6 °F 7.3 °F 1.4 °F 49% 29.99 in 10.0 mi NW 8.1 mph - N/A   Clear
4:37 PM 17.6 °F 8.2 °F 1.4 °F 49% 30.00 in 10.0 mi WNW 6.9 mph - N/A   Clear
4:56 PM 17.6 °F 7.3 °F 1.4 °F 49% 30.01 in 10.0 mi NW 8.1 mph - N/A   Clear
5:16 PM 17.6 °F 8.2 °F 1.4 °F 49% 30.02 in 10.0 mi NW 6.9 mph - N/A   Clear
5:37 PM 15.8 °F 8.6 °F 1.4 °F 53% 30.03 in 10.0 mi NW 4.6 mph - N/A   Clear
5:56 PM 15.8 °F - -0.4 °F 49% 30.03 in 10.0 mi Calm Calm - N/A   Clear
6:16 PM 12.2 °F - 1.4 °F 62% 30.04 in 10.0 mi Calm Calm - N/A   Clear
6:37 PM 10.4 °F - 1.4 °F 67% 30.05 in 10.0 mi Calm Calm - N/A   Clear
6:56 PM 8.6 °F - -0.4 °F 67% 30.05 in 10.0 mi Calm Calm - N/A   Scattered Clouds
7:16 PM 6.8 °F - -0.4 °F 72% 30.05 in 10.0 mi Calm Calm - N/A   Clear
7:37 PM 6.8 °F - 1.4 °F 79% 30.06 in 10.0 mi Calm Calm - N/A   Clear
7:56 PM 3.2 °F - -2.2 °F 78% 30.06 in 10.0 mi Calm Calm - N/A   Mostly Cloudy
8:16 PM 5.0 °F - -0.4 °F 78% 30.06 in 10.0 mi Calm Calm - N/A   Overcast
8:37 PM 6.8 °F -2.0 °F 1.4 °F 79% 30.06 in 10.0 mi West 4.6 mph - N/A   Overcast
8:56 PM 8.6 °F 0.1 °F 1.4 °F 73% 30.06 in 10.0 mi WNW 4.6 mph - N/A   Overcast
9:16 PM 8.6 °F 0.1 °F 1.4 °F 73% 30.06 in 10.0 mi WNW 4.6 mph - N/A   Overcast
9:37 PM 8.6 °F 0.1 °F 1.4 °F 73% 30.06 in 10.0 mi West 4.6 mph - N/A   Overcast
9:56 PM 8.6 °F 2.0 °F 1.4 °F 73% 30.06 in 10.0 mi WNW 3.5 mph - N/A   Overcast
10:16 PM 8.6 °F 0.1 °F 1.4 °F 73% 30.06 in 10.0 mi West 4.6 mph - N/A   Overcast
10:37 PM 10.4 °F 0.8 °F 3.2 °F 73% 30.06 in 10.0 mi West 5.8 mph - N/A   Overcast
10:56 PM 10.4 °F -1.5 °F 3.2 °F 73% 30.06 in 10.0 mi West 8.1 mph - N/A   Overcast
11:16 PM 10.4 °F -0.4 °F 3.2 °F 73% 30.06 in 10.0 mi West 6.9 mph - N/A   Overcast
11:36 PM 8.6 °F -2.6 °F 3.2 °F 79% 30.07 in 10.0 mi West 6.9 mph - N/A   Overcast
11:56 PM 8.6 °F -2.6 °F 1.4 °F 73% 30.07 in 10.0 mi West 6.9 mph - N/A   Mostly Cloudy